This demonstration page uses our WeatherBlox Daily Observations layout. Learn more.

Left ArrowRight Arrow

39.51506, -84.39828

Hourly Observations for January 14, 2019

Temp ( °F °C ) Dew Point ( °F °C ) Humidity (%) Winds ( mph kmh ) Pressure ( in mb ) Visibility ( mi km ) Precip ( " mm )
12:15 am 00:15 Cloudy 29 -1.9 26 -3.3 90 90 N 8 13 30.33 1027 10 16 0.00 0.00
12:35 am 00:35 Cloudy 28 -2 26 -3.2 92 92 N 7 11 30.33 1027 10 16 0.00 0.00
12:55 am 00:55 Cloudy 28 -2 26 -3.2 92 92 N 7 11 30.33 1027 10 16 0.00 0.00
1:15 am 01:15 Cloudy 28 -2.1 26 -3.3 92 92 N 9 15 30.33 1027 10 16 0.00 0.00
1:35 am 01:35 Cloudy 28 -2.1 26 -3.4 91 91 N 8 13 30.33 1027 10 16 0.00 0.00
1:55 am 01:55 Cloudy 28 -2.1 26 -3.4 91 91 N 8 13 30.33 1027 10 16 0.00 0.00
2:15 am 02:15 Cloudy 28 -2.1 26 -3.5 90 90 N 8 13 30.33 1027 10 16 0.00 0.00
2:35 am 02:35 Cloudy 28 -2.1 26 -3.5 90 90 N 6 9 30.36 1028 10 16 0.00 0.00
2:55 am 02:55 Cloudy 28 -2.1 26 -3.5 90 90 N 8 13 30.36 1028 10 16 0.00 0.00
3:15 am 03:15 Cloudy 28 -2.1 26 -3.6 90 90 N 6 9 30.36 1028 10 16 0.00 0.00
3:35 am 03:35 Cloudy 28 -2.2 25 -3.7 90 90 N 5 7 30.36 1028 10 16 0.00 0.00
3:55 am 03:55 Cloudy 28 -2.2 25 -3.7 90 90 N 6 9 30.36 1028 10 16 0.00 0.00
4:15 am 04:15 Cloudy 28 -2.3 25 -3.8 90 90 NW 3 6 30.36 1028 10 16 0.00 0.00
4:35 am 04:35 Cloudy 28 -2.4 25 -4 89 89 Calm 30.36 1028 10 16 0.00 0.00
4:55 am 04:55 Cloudy 28 -2.4 24 -4.2 88 88 Calm 30.36 1028 10 16 0.00 0.00
5:15 am 05:15 Cloudy 28 -2.5 24 -4.3 88 88 Calm 30.36 1028 10 16 0.00 0.00
5:35 am 05:35 Cloudy 28 -2.5 24 -4.3 88 88 Calm 30.36 1028 10 16 0.00 0.00
5:55 am 05:55 Cloudy 27 -2.6 24 -4.4 88 88 Calm 30.36 1028 10 16 0.00 0.00
6:15 am 06:15 Cloudy 28 -2.5 24 -4.4 87 87 Calm 30.36 1028 10 16 0.00 0.00
6:35 am 06:35 Cloudy 28 -2.5 24 -4.5 86 86 Calm 30.36 1028 10 16 0.00 0.00
6:55 am 06:55 Cloudy 27 -2.6 24 -4.5 87 87 NNW 3 6 30.36 1028 10 16 0.00 0.00
7:15 am 07:15 Cloudy 27 -2.6 24 -4.5 87 87 NW 5 7 30.36 1028 10 16 0.00 0.00
7:35 am 07:35 Cloudy 27 -2.7 24 -4.4 88 88 NNW 5 7 30.36 1028 10 16 0.00 0.00
7:55 am 07:55 Cloudy 27 -2.8 24 -4.6 88 88 N 6 9 30.36 1028 10 16 0.00 0.00
8:15 am 08:15 Cloudy 27 -2.9 24 -4.7 88 88 NNW 5 7 30.39 1029 10 16 0.00 0.00
8:35 am 08:35 Cloudy 26 -3.1 23 -5 87 87 N 7 11 30.39 1029 10 16 0.00 0.00
8:55 am 08:55 Cloudy 26 -3.3 23 -5.2 87 87 N 8 13 30.39 1029 10 16 0.00 0.00
9:15 am 09:15 Cloudy 26 -3.5 22 -5.3 88 88 N 5 7 30.39 1029 10 16 0.00 0.00
9:35 am 09:35 Cloudy 26 -3.5 22 -5.3 88 88 N 8 13 30.42 1030 7 11 0.00 0.00
9:55 am 09:55 Cloudy 26 -3.5 22 -5.3 88 88 N 6 9 30.42 1030 7 11 0.00 0.00
10:15 am 10:15 Cloudy 26 -3.4 22 -5.7 84 84 NNE 6 9 30.42 1030 7 11 0.00 0.00
10:35 am 10:35 Cloudy 26 -3.3 22 -5.8 83 83 N 8 13 30.42 1030 10 16 0.00 0.00
10:55 am 10:55 Cloudy 26 -3.3 21 -6 82 82 N 6 9 30.42 1030 10 16 0.00 0.00
11:15 am 11:15 Cloudy 26 -3.2 21 -6.2 80 80 N 7 11 30.42 1030 10 16 0.00 0.00
11:35 am 11:35 Cloudy 26 -3.1 21 -6.1 80 80 NW 6 9 30.42 1030 10 16 0.00 0.00
11:55 am 11:55 Cloudy 27 -3 21 -5.9 81 81 N 6 9 30.42 1030 10 16 0.00 0.00
12:15 pm 12:15 Cloudy 27 -3 21 -6.3 78 78 N 6 9 30.39 1029 10 16 0.00 0.00
12:35 pm 12:35 Cloudy 27 -3 20 -6.6 76 76 Calm 30.39 1029 10 16 0.00 0.00
12:55 pm 12:55 Cloudy 27 -2.8 20 -6.9 74 74 N 5 7 30.39 1029 10 16 0.00 0.00
1:15 pm 13:15 Mostly Cloudy 27 -2.6 19 -7 72 72 N 3 6 30.36 1028 10 16 0.00 0.00
1:35 pm 13:35 Mostly Cloudy 27 -2.6 20 -6.9 73 73 Calm 30.36 1028 10 16 0.00 0.00
1:55 pm 13:55 Mostly Cloudy 27 -2.8 19 -7.1 73 73 Calm 30.36 1028 10 16 0.00 0.00
2:15 pm 14:15 Partly Cloudy 28 -2.2 19 -7 70 70 Calm 30.36 1028 10 16 0.00 0.00
2:35 pm 14:35 Partly Cloudy 28 -2.2 20 -6.9 71 71 Calm 30.36 1028 10 16 0.00 0.00
2:55 pm 14:55 Partly Cloudy 29 -1.9 19 -7 68 68 Calm 30.36 1028 10 16 0.00 0.00
3:15 pm 15:15 Partly Cloudy 28 -2.1 19 -7.4 67 67 Calm 30.36 1028 10 16 0.00 0.00
3:35 pm 15:35 Sunny 29 -1.9 17 -8.1 63 63 N 6 9 30.36 1028 10 16 0.00 0.00
3:55 pm 15:55 Sunny 29 -1.9 16 -9 59 59 Calm 30.36 1028 10 16 0.00 0.00
4:15 pm 16:15 Sunny 28 -2.1 16 -8.9 60 60 N 5 7 30.33 1027 10 16 0.00 0.00
4:35 pm 16:35 Sunny 28 -2.5 16 -9 61 61 Calm 30.33 1027 10 16 0.00 0.00
4:55 pm 16:55 Sunny 27 -2.9 17 -8.6 65 65 W 3 6 30.33 1027 10 16 0.00 0.00
5:15 pm 17:15 Sunny 25 -3.9 16 -8.8 69 69 WNW 3 6 30.33 1027 10 16 0.00 0.00
5:35 pm 17:35 Sunny 26 -3.2 17 -8.4 68 68 Calm 30.33 1027 10 16 0.00 0.00
5:55 pm 17:55 Clear 23 -5.2 18 -7.8 82 82 Calm 30.39 1029 10 16 0.00 0.00
6:15 pm 18:15 Clear 21 -6.2 18 -7.6 90 90 Calm 30.39 1029 7 11 0.00 0.00
6:35 pm 18:35 Clear with Mist and Fog 16 -8.9 14 -9.9 93 93 Calm 30.39 1029 2 3 0.00 0.00
6:55 pm 18:55 Mostly Cloudy with Freezing Fog 20 -6.7 19 -7.5 94 94 Calm 30.39 1029 1 1 0.00 0.00
7:15 pm 19:15 Mostly Cloudy with Mist and Fog 18 -8 16 -8.9 93 93 Calm 30.39 1029 1 1 0.00 0.00
7:35 pm 19:35 Clear with Mist and Fog 19 -7.3 17 -8.2 93 93 Calm 30.39 1029 4 6 0.00 0.00
7:55 pm 19:55 Mostly Cloudy with Freezing Fog 15 -9.5 13 -10.5 93 93 Calm 30.39 1029 0 0 0.00 0.00
8:15 pm 20:15 Mostly Cloudy with Freezing Fog 13 -10.6 11 -11.8 91 91 Calm 30.39 1029 5 8 0.00 0.00
8:35 pm 20:35 Mostly Cloudy with Freezing Fog 15 -9.5 13 -10.6 92 92 Calm 30.39 1029 0 0 0.00 0.00
8:55 pm 20:55 Mostly Cloudy with Freezing Fog 11 -11.6 9 -12.9 90 90 Calm 30.36 1028 0 0 0.00 0.00
9:15 pm 21:15 Mostly Cloudy with Freezing Fog 14 -9.9 12 -11.1 91 91 Calm 30.39 1029 1 1 0.00 0.00
9:35 pm 21:35 Mostly Cloudy with Mist and Fog 12 -11 10 -12.3 90 90 Calm 30.39 1029 1 2 0.00 0.00
9:55 pm 21:55 Clear with Mist and Fog 13 -10.6 11 -11.8 91 91 Calm 30.39 1029 3 5 0.00 0.00
10:15 pm 22:15 Mostly Cloudy with Mist and Fog 9 -13 6 -14.6 88 88 Calm 30.39 1029 1 1 0.00 0.00
10:35 pm 22:35 Mostly Cloudy with Mist and Fog 10 -12.1 8 -13.5 89 89 Calm 30.39 1029 2 2 0.00 0.00
10:55 pm 22:55 Mostly Cloudy with Freezing Fog 10 -12 8 -13.4 89 89 Calm 30.39 1029 1 1 0.00 0.00
11:15 pm 23:15 Mostly Cloudy with Mist and Fog 11 -11.7 8 -13.1 89 89 Calm 30.39 1029 2 2 0.00 0.00
11:35 pm 23:35 Mostly Clear with Mist and Fog 9 -12.9 6 -14.5 88 88 Calm 30.39 1029 2 2 0.00 0.00
11:55 pm 23:55 Cloudy with Mist and Fog 10 -12.1 8 -13.5 89 89 Calm 30.39 1029 1 1 0.00 0.00

Powered by AerisWeather